Location: Le Gr�zie
(43.6000°N, 13.5000°E)
Time: 02:33:53
(UTC+00:00)

USA 234 - Pass Details

Date: 09 April 2020
Orbit: 1102 x 1106 km, 123.0° (Epoch: 14 May)

Event Time Altitude Azimuth Distance (km) Brightness Sun altitude
Rises 21:34:07 0° 49° (NE) 3,925 6.3 -34.2°
Reaches altitude 10° 21:36:40 10° 44° (NE) 2,966 5.7 -34.4°
Maximum altitude 21:42:56 51° 331° (NNW) 1,358 3.9 -35.0°
Drops below altitude 10° 21:49:12 10° 258° (WSW) 2,959 5.6 -35.4°
Sets 21:51:45 0° 253° (WSW) 3,916 6.2 -35.6°
